Temp_Advection
nan nan nan nan nan nan nan nan nan nan nan nan nan nan nan nan nan nan nan nan nan nan nan nan nan nan nan nan nan nan nan nan nan nan nan nan nan nan nan nan nan nan nan nan nan nan nan nan nan
nan 0 0 -0 -0 0 -0 -0 -0 0 -0 -0 -0 -0 -0 -0 0 0 -0 0 1 2 1 1 1 2 2 1 1 0 0 0 0 0 0 0 -0 -0 -0 -0 -0 -0 -0 -0 -0 -0 -0 -0 nan
nan 0 0 -0 -0 -0 -0 -0 0 0 -0 -0 -0 -0 -0 0 0 0 0 0 -0 0 1 2 2 -1 1 0 1 0 0 0 0 0 0 0 0 -0 -0 -0 -0 -0 -0 -0 -1 -0 -0 -0 nan
nan -0 0 -0 -0 -1 -1 -0 0 0 -0 -0 -0 -0 -0 0 -0 -0 0 0 -0 0 1 1 0 1 1 1 0 0 0 0 0 0 0 0 0 0 -0 -0 -0 -0 -0 -0 -1 -0 -0 -0 nan
nan 0 -0 -0 -0 -1 -1 -0 1 0 -0 -0 -0 0 0 0 0 -0 -0 0 0 0 2 2 1 4 0 2 0 0 1 1 0 0 0 0 0 0 0 -0 0 -0 -0 -0 -0 -0 -0 -0 nan
nan -0 -0 -0 -1 -0 -0 0 0 -0 0 0 0 0 0 0 0 0 -0 -0 0 1 1 -0 0 1 2 1 1 1 1 0 0 0 0 0 0 0 0 0 0 0 -0 -0 -0 -0 -1 -0 nan
nan -0 -0 -0 -1 -1 -0 -0 -0 -0 -0 0 0 -0 0 0 -0 0 0 -0 0 0 -0 -1 0 0 1 -1 2 2 0 0 0 0 0 0 0 0 0 0 0 0 0 0 -0 -0 -0 -0 nan
nan -0 -0 -0 -0 -1 -0 -0 -0 -1 -0 0 0 0 -0 -0 0 0 0 0 0 -0 -0 1 0 1 1 -0 2 2 1 0 0 0 0 0 1 0 0 0 0 0 -0 -0 0 0 0 -0 nan
nan -0 -0 -1 -0 -1 -0 0 -1 -0 -0 0 0 -0 0 -0 -0 0 1 0 0 0 0 1 0 1 -1 1 2 1 1 1 1 1 1 0 0 0 0 0 0 0 0 0 0 0 0 0 nan
nan -0 -1 -1 -0 -0 -0 0 -1 -0 0 -0 -0 0 1 0 0 0 0 -0 0 0 -1 0 0 -1 -1 1 2 1 1 1 1 0 0 0 0 0 -0 0 0 0 0 -0 0 0 0 0 nan
nan -1 -1 -1 -1 -0 0 -0 -0 -0 -0 -0 0 0 1 0 0 0 0 0 0 1 -0 0 0 -1 -0 -0 1 1 1 1 1 0 0 -0 -0 0 0 0 0 0 0 -0 -0 -0 0 0 nan
nan -0 -0 -0 -0 -0 0 -0 -0 -0 0 0 -0 0 0 0 0 0 -0 0 0 0 1 -0 1 -0 -0 -0 -0 1 1 1 0 0 0 0 -0 -0 0 -0 0 0 0 0 -0 0 -0 0 nan
nan -0 -0 -0 -0 -0 -0 0 -0 -1 -0 0 -0 0 -0 0 0 0 0 0 0 0 -0 -0 0 1 -0 -0 0 1 1 1 1 0 0 0 -0 0 0 0 0 -0 0 0 0 0 0 0 nan
nan -0 -1 -0 -0 -0 -0 0 0 -1 -1 -0 0 -0 -0 0 0 0 0 0 0 -0 -0 0 0 1 1 0 0 1 1 1 1 1 1 1 1 0 -0 0 -0 0 0 0 0 0 0 -0 nan
nan 0 -1 -1 -0 0 -0 0 -0 -0 -1 -0 0 -0 -0 0 0 0 0 0 0 0 0 0 0 1 1 1 1 1 1 1 0 1 1 1 1 0 0 0 -0 0 0 0 0 0 -0 -0 nan
nan -0 -0 -0 -0 0 -0 0 -0 0 -0 -0 0 0 0 0 0 -0 0 0 0 0 0 0 1 0 0 1 0 1 0 1 0 1 0 0 1 0 1 0 0 0 1 0 0 -0 -0 0 nan
nan -0 -0 -0 -0 0 0 0 -0 0 0 -1 0 0 0 0 0 0 0 0 0 0 0 1 1 1 1 1 1 1 1 1 1 1 0 0 0 1 1 0 1 1 0 0 0 0 0 0 nan
nan -0 -0 -0 -0 0 0 0 0 1 1 0 -0 0 0 0 0 0 0 0 0 0 1 1 1 1 1 0 1 1 1 1 1 0 0 1 1 0 0 0 0 0 0 0 0 0 0 0 nan
nan 0 -0 -0 -0 -0 0 0 0 1 0 0 0 0 0 0 0 0 0 0 0 0 0 0 0 0 0 -0 -0 0 1 0 0 -0 0 0 1 -0 -0 -0 -0 0 0 0 0 0 -0 0 nan
nan -0 -1 -1 -0 -0 0 1 0 -0 -0 -0 -0 -1 -0 -0 -1 0 0 -0 -1 -0 0 0 -0 -0 -1 -0 -0 -1 -0 -0 -1 -0 0 0 -1 -1 -0 0 -0 0 0 0 -0 -0 -0 0 nan
nan -0 -1 -0 -0 0 0 0 -0 -0 -0 -0 -0 -1 -1 -1 -2 -1 -0 -0 -0 -0 -0 0 0 -0 -0 -0 -0 -1 -1 -1 -0 -0 0 -1 -2 -1 1 0 0 1 0 0 -0 -0 0 0 nan
nan -1 -0 0 -0 -0 -0 0 -0 0 -0 -0 -0 0 -0 -2 -1 -2 -1 -0 -0 -0 -0 -0 -0 -1 -0 -0 -1 -1 -1 -1 -0 -0 -1 -1 -0 1 1 1 1 0 0 0 -0 0 1 0 nan
nan -1 -0 0 0 -0 -0 0 -0 -0 -0 -0 -1 -0 -0 -1 -0 -0 -1 -1 -0 -0 -0 -1 -1 -1 -1 -1 -1 -1 -1 -1 -0 -0 -0 0 1 1 0 1 0 0 0 -0 0 1 1 0 nan
nan 0 -0 -0 -0 -0 -0 -0 0 -0 -0 -1 -1 -1 -0 -0 1 1 1 -0 -0 -1 -1 -1 -1 -1 -1 -1 -0 -0 -0 -0 -0 -0 0 0 0 0 0 0 -0 0 0 0 0 1 1 0 nan
nan -0 0 -0 -0 -0 -0 -0 -0 -0 -0 -1 -1 -1 -1 -0 0 0 1 -0 -1 -1 -1 -1 -1 -0 -0 -0 -0 -0 -1 -1 -1 -0 -0 -0 -0 -1 -1 -0 -0 0 1 1 1 1 1 1 nan
nan 0 -0 -0 -0 -0 -0 -0 -0 -0 -1 -1 -0 -1 -1 -1 -1 -2 -2 -1 -0 -1 -1 -1 -1 -1 -1 -1 -0 -1 -1 -1 -0 -0 -0 -1 -1 -0 0 0 0 1 1 1 1 1 1 1 nan
nan -0 -0 -0 0 -0 -0 -0 -0 -0 0 -0 0 0 -1 -2 -2 -1 0 -0 -1 -1 -1 -0 -0 -1 -1 -0 -1 -1 -1 -1 -0 -0 -0 -0 -0 -0 0 0 1 1 1 1 1 1 1 1 nan
nan -0 -0 0 0 -0 -0 -0 -0 -0 -0 0 0 -0 -2 -1 -1 -1 -2 -3 -2 -1 1 1 -0 -0 -0 -0 -1 -1 -1 -0 -0 -0 -0 0 -0 -0 0 1 1 1 1 1 1 1 1 1 nan
nan -0 -0 -0 -0 -0 0 -0 -0 -0 -0 0 0 -1 -2 -2 -3 -3 -4 -3 -0 1 1 0 0 -1 -1 -1 -1 -1 -0 0 0 -0 0 1 -0 -0 0 1 1 1 1 1 1 1 1 1 nan
nan nan nan nan nan nan nan nan nan nan nan nan nan nan nan nan nan nan nan nan nan nan nan nan nan nan nan nan nan nan nan nan nan nan nan nan nan nan nan nan nan nan nan nan nan nan nan nan nan
Wind_Speed
2 4 3 2 4 5 5 5 4 6 8 2 4 6 4 5 2 4 13 10 15 27 35 36 33 34 35 34 35 33 31 31 30 28 24 22 25 27 28 29 31 32 31 31 32 32 30 28 25
2 4 2 1 4 1 5 5 3 6 6 10 3 3 4 3 4 7 4 10 20 34 31 29 39 31 32 33 36 34 32 32 30 27 24 24 27 28 29 31 32 32 32 32 32 30 29 26 22
3 3 1 4 3 4 4 5 6 7 2 1 2 5 3 1 3 6 10 10 15 24 23 32 39 31 28 35 35 34 32 32 30 27 24 27 29 31 31 33 33 32 32 31 31 30 28 25 20
1 1 1 3 7 7 8 13 9 4 5 9 3 5 9 7 2 1 4 14 15 19 26 33 29 29 39 39 37 35 34 33 30 27 26 29 31 32 33 33 33 32 31 31 32 29 26 20 14
4 0 3 3 8 7 8 20 7 4 3 4 4 2 2 8 9 8 6 8 14 19 30 30 31 41 44 46 40 37 35 33 31 28 27 31 31 32 32 33 33 32 31 31 31 29 25 19 16
1 1 2 3 8 7 6 14 8 3 2 2 0 6 5 6 10 14 9 9 9 20 24 28 30 31 43 54 44 40 37 34 31 28 31 33 33 32 32 32 31 30 29 30 28 27 24 19 17
6 3 5 6 15 9 6 7 5 6 2 4 2 3 3 17 9 12 12 9 8 14 22 14 24 27 44 35 47 43 39 34 30 30 33 35 35 32 31 31 30 29 28 26 26 23 22 19 14
4 4 4 5 5 11 6 2 4 6 3 3 0 3 4 22 6 4 11 8 8 14 18 18 23 21 39 55 48 43 37 33 30 31 34 35 34 32 31 30 28 26 25 23 22 21 19 18 14
5 2 5 7 5 7 11 0 9 10 8 2 3 2 6 10 9 4 8 8 10 8 14 20 13 42 33 61 48 41 37 33 32 35 35 36 33 31 29 28 26 24 22 21 19 18 16 15 13
4 3 7 9 10 7 6 2 11 5 5 2 4 7 13 7 7 8 6 9 9 15 15 10 11 48 59 46 44 42 38 35 36 36 35 34 33 31 30 27 25 23 22 20 18 16 14 13 12
4 6 12 22 23 14 5 3 3 12 2 2 2 4 12 7 6 4 2 3 11 20 12 14 14 23 44 43 42 39 36 37 37 37 36 35 32 29 28 27 26 24 21 19 18 14 14 12 9
1 13 15 12 4 3 2 5 5 6 5 2 4 4 10 8 5 5 9 8 11 12 15 18 23 27 22 35 35 37 39 38 38 36 35 34 29 30 28 28 25 23 20 19 16 14 10 10 7
6 5 13 8 4 2 3 1 5 13 12 7 3 7 7 3 6 6 8 9 11 17 21 24 24 31 33 37 38 35 37 37 36 36 35 31 30 27 29 26 24 22 20 18 15 12 10 7 4
7 12 18 9 12 3 2 2 5 10 15 10 4 4 4 2 6 7 7 9 15 18 17 23 25 27 34 38 41 43 42 39 37 38 33 31 28 29 26 25 23 21 19 17 14 11 9 8 6
10 7 9 10 7 4 2 4 5 9 15 11 7 4 2 1 6 9 11 11 16 22 20 27 33 36 40 40 40 41 41 40 37 33 30 27 27 26 23 22 20 20 19 17 15 13 12 9 9
6 3 3 6 4 4 8 9 8 7 14 13 10 8 4 2 7 11 13 16 19 27 34 33 38 41 43 42 43 41 36 35 36 30 27 22 22 23 22 22 20 20 20 16 14 15 12 11 9
2 6 6 9 9 4 5 8 7 11 14 18 15 11 7 3 6 12 14 16 19 21 28 34 36 38 40 41 45 39 40 36 35 35 30 30 22 22 22 20 21 21 19 16 17 14 11 10 11
6 4 4 7 4 5 4 11 3 13 15 18 18 12 8 9 11 13 14 15 18 19 22 32 37 38 38 39 39 40 42 37 34 35 35 25 30 21 23 20 17 18 20 20 19 15 13 13 12
9 10 12 10 12 6 7 9 9 15 14 14 16 14 14 14 15 14 14 15 17 19 18 23 32 32 38 37 39 43 41 38 36 33 30 30 26 23 20 19 21 24 24 23 22 20 19 18 17
14 15 17 12 7 6 5 10 7 12 20 29 28 21 19 19 18 18 15 18 20 21 22 23 27 31 36 35 35 41 37 38 34 34 33 29 27 21 20 24 23 27 27 26 26 25 25 23 22
17 15 15 8 5 4 4 5 4 6 11 15 19 25 25 26 22 23 27 23 19 21 25 27 28 33 32 31 34 35 36 34 36 35 32 31 33 27 24 25 26 27 29 29 28 27 27 25 26
13 12 7 5 2 2 2 5 4 5 9 14 21 26 29 27 22 23 27 25 28 27 27 32 33 32 33 33 37 35 38 36 36 37 34 35 31 28 26 28 30 29 31 29 28 28 27 27 29
14 19 6 4 3 3 6 1 6 8 8 13 18 27 34 34 31 30 30 30 34 34 36 33 32 33 36 36 36 33 36 37 34 36 35 33 31 29 27 30 31 34 32 30 29 30 29 29 31
19 4 4 4 2 2 3 1 6 5 10 19 21 29 37 41 37 35 32 32 37 40 39 37 35 34 35 38 37 37 36 37 37 36 33 34 32 32 33 33 35 34 34 33 30 31 31 31 32
6 5 1 3 2 5 3 3 8 10 6 19 24 34 39 44 45 42 41 41 42 46 44 43 39 37 36 36 36 37 37 35 33 32 33 33 36 38 36 34 36 38 37 34 32 32 34 33 33
8 9 6 6 4 4 4 5 6 5 17 18 29 37 40 40 45 48 47 45 45 47 47 45 43 40 39 38 37 38 37 36 33 33 34 34 34 36 37 36 36 39 38 35 33 36 36 33 32
7 5 9 6 0 3 3 5 8 6 4 2 13 27 32 40 45 49 47 46 47 47 50 50 47 43 41 41 39 38 38 40 39 38 39 37 34 33 32 33 31 33 38 38 37 37 37 36 37
13 8 4 1 7 4 4 5 5 5 4 4 6 21 32 42 44 45 46 47 47 47 47 50 49 48 46 43 41 40 40 39 42 41 42 43 39 36 33 32 30 31 38 39 37 38 39 35 29
3 4 3 6 6 6 3 6 6 9 4 5 7 22 36 36 41 45 46 46 47 48 47 47 48 50 49 47 45 44 43 44 44 47 46 46 43 38 33 34 34 35 36 35 36 41 34 34 33
4 10 10 5 5 3 5 6 4 9 8 9 9 14 21 30 34 36 36 33 44 48 47 48 47 47 48 44 46 46 46 45 45 45 51 50 42 36 35 35 29 29 33 37 35 39 37 35 33
Wind_Direction
326 316 329 6 46 54 305 291 250 340 348 262 217 82 93 33 42 147 172 171 149 175 177 174 180 176 177 177 170 167 164 159 154 151 148 143 143 140 138 133 128 123 121 120 120 117 111 106 98
336 291 306 76 86 21 276 241 199 211 253 287 327 52 100 153 105 154 168 212 174 179 185 195 185 182 183 181 172 171 165 159 156 151 145 144 145 140 136 133 131 128 125 123 122 116 111 105 97
345 291 278 111 135 185 238 267 264 221 289 290 35 51 43 17 191 167 131 196 176 182 188 185 182 199 197 184 177 172 167 162 159 152 147 148 147 144 139 137 135 132 129 125 123 118 111 106 107
170 351 192 91 256 244 239 274 247 219 262 14 64 44 335 339 354 347 120 149 188 201 192 188 196 223 212 188 180 174 171 165 159 152 149 151 149 145 140 140 136 134 128 125 124 121 117 110 114
351 339 38 335 277 260 255 231 229 238 256 331 90 184 59 24 326 297 280 201 182 190 215 216 206 191 190 193 181 177 174 167 161 153 153 152 150 145 143 142 140 136 130 127 129 128 122 106 98
12 93 41 268 274 303 278 223 205 178 220 270 315 156 135 20 356 325 326 271 239 195 203 197 191 200 212 192 181 179 174 168 160 154 155 153 151 148 145 143 141 137 133 131 134 135 129 107 101
130 92 231 245 282 301 254 197 199 153 342 358 336 313 46 354 348 345 321 297 243 202 189 191 202 232 228 209 182 177 173 166 158 156 156 155 153 150 146 145 142 139 137 135 133 133 139 130 113
170 111 290 253 288 287 258 236 172 126 211 159 288 46 303 346 333 310 286 255 196 218 213 248 245 236 217 196 178 172 167 164 159 157 156 155 156 152 147 146 143 140 140 140 136 133 133 146 144
251 70 274 264 269 267 286 231 75 102 125 210 199 247 271 346 297 259 217 171 180 175 230 247 228 241 227 171 169 167 166 161 159 155 156 156 155 151 148 145 143 142 142 143 141 137 141 144 154
133 136 252 245 270 251 258 134 129 159 195 257 251 291 251 267 245 267 263 204 180 141 107 117 52 134 154 159 161 163 160 159 157 156 155 154 153 151 149 147 148 149 148 146 148 148 154 153 148
195 212 267 277 271 264 301 49 113 149 16 296 23 300 219 223 208 237 179 140 163 157 144 126 128 101 137 152 157 159 157 157 156 157 156 154 147 147 151 153 158 156 154 156 161 166 159 148 137
289 258 256 283 259 35 348 150 115 72 156 134 88 183 186 206 205 195 162 166 167 178 171 149 143 153 161 160 157 158 159 157 157 157 154 148 146 158 162 164 163 161 160 171 169 164 168 158 141
197 268 307 269 268 91 169 216 149 145 131 136 121 134 160 214 208 197 189 175 179 172 168 160 162 153 169 167 164 163 158 158 155 155 153 154 157 170 167 168 165 168 168 178 168 173 177 177 167
304 314 300 301 298 300 163 200 170 152 145 145 141 89 58 218 253 221 206 195 192 184 176 176 176 173 168 167 167 165 161 156 156 156 153 166 169 175 171 169 172 176 179 180 183 187 187 192 197
316 321 314 306 297 264 165 295 230 153 151 157 143 79 88 136 252 213 199 205 196 177 183 185 182 174 169 167 164 161 161 163 166 162 165 165 171 176 172 179 181 183 187 189 193 194 194 201 193
346 316 291 265 275 211 125 271 271 189 154 152 161 144 146 173 228 219 203 188 183 183 180 187 180 171 169 167 167 166 167 164 165 167 161 161 172 178 180 187 189 193 194 194 204 201 197 201 199
316 252 249 301 221 137 148 258 246 198 166 157 168 155 133 224 224 210 202 199 192 185 184 178 179 184 180 172 176 178 172 166 169 173 169 178 178 185 190 190 200 199 197 207 209 206 214 216 209
226 226 272 255 275 201 175 251 201 214 181 176 168 155 166 180 210 204 195 203 203 202 196 193 176 184 183 174 175 178 171 172 179 175 184 183 187 200 196 194 200 206 214 214 213 217 219 221 221
266 276 268 269 266 189 234 254 213 172 165 169 188 162 176 179 186 195 194 197 195 196 194 197 190 185 184 191 188 186 193 187 183 181 199 191 196 202 200 203 216 222 220 215 217 219 227 215 214
254 261 272 271 250 162 252 254 241 172 185 183 179 177 184 184 178 187 183 182 184 196 195 194 190 188 184 183 186 180 186 188 192 191 195 197 196 209 215 218 218 221 219 214 218 228 222 216 216
250 251 261 249 302 237 230 289 184 192 170 183 186 184 182 190 177 184 178 175 191 204 202 196 188 184 190 190 181 182 193 201 194 195 200 204 207 212 221 225 224 224 219 222 227 227 225 221 219
256 246 243 271 59 262 45 282 255 196 160 182 181 187 192 197 186 184 188 192 199 206 199 195 194 193 192 187 186 189 191 193 202 205 211 206 213 219 221 227 228 228 225 230 237 232 227 226 228
243 249 234 239 261 59 329 19 271 120 204 201 198 193 197 198 190 187 194 194 186 192 188 185 184 187 186 188 188 189 195 199 199 204 214 222 224 229 231 230 234 230 227 236 240 233 231 233 232
242 212 53 38 72 329 334 161 276 205 208 201 205 200 195 198 197 195 191 189 190 190 189 189 188 189 188 191 193 197 203 208 214 218 222 227 229 229 227 226 230 234 233 235 237 238 240 241 238
195 116 264 332 345 232 280 274 242 272 238 192 197 202 199 199 196 198 197 196 193 193 193 195 196 197 199 205 210 213 215 216 220 223 226 229 226 225 227 229 232 235 237 238 239 243 241 241 232
201 174 155 209 201 247 272 243 249 215 278 210 205 198 197 196 200 204 204 202 200 199 199 200 203 205 206 210 214 217 220 222 225 228 233 232 233 235 233 230 233 235 236 237 238 236 237 233 234
222 173 185 124 34 102 251 291 291 311 347 111 194 187 190 200 205 211 211 210 209 208 209 209 210 212 215 216 217 220 224 227 230 231 233 237 240 238 236 233 234 232 233 233 234 236 235 238 228
197 165 94 325 164 197 269 249 236 278 215 299 200 187 196 204 208 213 214 218 218 219 218 218 220 220 219 221 221 222 225 231 235 236 237 240 241 243 241 235 232 236 235 236 237 241 233 245 229
181 164 131 144 149 165 206 262 219 203 254 224 219 184 200 203 210 216 224 227 228 226 222 224 224 226 225 225 229 230 230 232 237 238 240 240 243 245 246 243 230 236 235 235 242 246 236 240 238
276 208 175 161 208 168 166 263 239 188 211 246 260 205 191 196 208 217 223 229 231 232 228 229 231 230 230 232 233 237 238 239 241 248 240 238 241 252 255 248 233 234 230 234 243 241 238 237 241
Height
1512 1513 1513 1513 1524 1530 1533 1522 1505 1504 1500 1495 1492 1485 1490 1493 1492 1501 1492 1489 1491 1494 1495 1500 1509 1511 1518 1521 1521 1524 1527 1527 1526 1529 1532 1534 1539 1542 1543 1547 1548 1549 1551 1552 1554 1555 1556 1557 1559
1512 1513 1514 1513 1530 1539 1533 1510 1507 1500 1497 1493 1488 1487 1486 1490 1490 1489 1491 1491 1493 1495 1502 1493 1507 1515 1520 1523 1519 1523 1525 1525 1527 1529 1530 1534 1538 1541 1543 1547 1550 1552 1555 1555 1556 1558 1559 1560 1561
1512 1513 1515 1517 1532 1536 1530 1506 1498 1496 1494 1491 1487 1487 1490 1491 1490 1489 1492 1489 1493 1497 1501 1503 1506 1507 1513 1522 1522 1523 1525 1525 1527 1527 1530 1533 1536 1540 1545 1547 1551 1554 1557 1556 1558 1561 1562 1564 1564
1511 1514 1515 1522 1525 1515 1509 1500 1495 1498 1491 1488 1487 1490 1492 1494 1494 1494 1491 1490 1492 1495 1499 1505 1510 1499 1513 1516 1521 1522 1523 1523 1524 1527 1530 1533 1538 1540 1544 1549 1551 1556 1558 1559 1560 1564 1566 1567 1566
1511 1513 1521 1524 1518 1505 1496 1493 1494 1495 1489 1488 1486 1490 1490 1491 1493 1491 1490 1490 1488 1489 1492 1499 1506 1503 1506 1508 1515 1519 1521 1521 1523 1524 1529 1534 1540 1543 1545 1549 1552 1556 1559 1561 1564 1566 1569 1568 1569
1512 1513 1528 1533 1513 1500 1491 1488 1493 1488 1486 1486 1486 1482 1482 1486 1485 1486 1485 1486 1485 1487 1490 1497 1497 1501 1506 1504 1509 1515 1518 1521 1522 1523 1528 1532 1539 1544 1546 1550 1554 1556 1560 1563 1566 1568 1570 1570 1570
1511 1518 1524 1519 1508 1501 1488 1485 1486 1486 1490 1488 1488 1487 1486 1485 1483 1481 1483 1480 1482 1485 1487 1490 1492 1492 1493 1499 1504 1510 1517 1520 1521 1523 1528 1532 1539 1544 1548 1552 1555 1558 1561 1565 1568 1570 1571 1572 1571
1507 1511 1514 1512 1508 1503 1484 1483 1483 1485 1487 1484 1482 1481 1483 1480 1476 1475 1480 1481 1480 1480 1482 1488 1484 1479 1487 1487 1501 1504 1513 1520 1520 1522 1527 1534 1539 1544 1549 1554 1557 1559 1563 1567 1569 1571 1572 1574 1573
1506 1517 1521 1510 1500 1491 1482 1481 1486 1486 1484 1481 1480 1475 1475 1477 1473 1474 1477 1483 1481 1479 1476 1475 1465 1461 1461 1473 1494 1502 1514 1519 1520 1522 1529 1534 1540 1545 1551 1554 1558 1562 1565 1568 1571 1572 1574 1576 1574
1503 1516 1505 1492 1488 1487 1480 1478 1482 1485 1481 1479 1477 1473 1472 1474 1471 1473 1476 1478 1479 1477 1477 1469 1462 1445 1443 1478 1492 1506 1509 1515 1519 1524 1529 1534 1539 1545 1551 1554 1558 1562 1566 1567 1570 1572 1573 1578 1576
1499 1506 1492 1487 1485 1481 1477 1479 1481 1479 1482 1477 1475 1473 1472 1474 1474 1471 1476 1475 1477 1477 1478 1478 1469 1458 1470 1486 1495 1503 1507 1513 1517 1525 1529 1534 1539 1548 1551 1555 1558 1562 1565 1567 1570 1571 1576 1577 1577
1497 1491 1488 1483 1482 1476 1476 1476 1477 1481 1481 1477 1474 1474 1472 1472 1472 1473 1476 1476 1477 1476 1477 1479 1477 1479 1486 1492 1497 1503 1508 1511 1519 1525 1529 1534 1539 1549 1553 1555 1559 1562 1563 1567 1569 1572 1576 1577 1577
1492 1487 1484 1483 1478 1475 1474 1473 1473 1479 1480 1481 1480 1476 1474 1472 1472 1471 1473 1476 1476 1477 1478 1479 1480 1479 1485 1491 1494 1505 1510 1518 1522 1527 1530 1535 1541 1549 1552 1556 1559 1561 1563 1568 1569 1572 1574 1577 1577
1486 1484 1480 1477 1475 1474 1473 1473 1473 1478 1477 1480 1479 1474 1471 1473 1473 1472 1472 1475 1476 1474 1477 1481 1485 1485 1487 1493 1500 1505 1510 1516 1522 1526 1530 1537 1542 1548 1551 1555 1558 1560 1563 1567 1569 1571 1573 1575 1576
1485 1486 1478 1473 1472 1473 1472 1473 1470 1471 1475 1475 1478 1472 1472 1474 1473 1473 1473 1474 1477 1477 1477 1480 1484 1487 1492 1497 1505 1510 1512 1514 1524 1529 1532 1537 1542 1547 1549 1554 1556 1558 1562 1566 1568 1570 1572 1575 1576
1487 1486 1488 1470 1469 1468 1471 1481 1467 1469 1470 1475 1478 1476 1474 1474 1475 1475 1476 1475 1477 1479 1478 1481 1484 1487 1494 1499 1508 1513 1515 1521 1524 1529 1532 1538 1542 1546 1549 1552 1554 1558 1561 1564 1567 1569 1570 1573 1574
1491 1499 1488 1476 1465 1469 1469 1474 1464 1464 1469 1473 1476 1474 1474 1473 1475 1475 1476 1477 1479 1480 1482 1483 1487 1491 1495 1501 1507 1512 1515 1518 1521 1527 1532 1538 1542 1545 1548 1551 1553 1557 1559 1561 1565 1568 1569 1570 1572
1498 1494 1482 1481 1467 1467 1469 1468 1466 1464 1466 1468 1472 1471 1474 1478 1473 1474 1475 1478 1479 1483 1485 1487 1489 1494 1500 1503 1506 1509 1512 1518 1522 1527 1533 1539 1541 1544 1548 1549 1552 1555 1558 1561 1563 1566 1567 1569 1571
1485 1486 1485 1472 1460 1466 1466 1464 1461 1464 1465 1466 1468 1468 1474 1477 1477 1476 1475 1476 1479 1483 1486 1489 1492 1496 1501 1503 1507 1509 1514 1518 1522 1527 1533 1537 1542 1544 1545 1547 1550 1553 1555 1558 1562 1563 1564 1566 1568
1482 1484 1479 1467 1455 1460 1458 1461 1457 1460 1459 1459 1461 1465 1467 1474 1474 1476 1473 1477 1478 1481 1484 1487 1491 1493 1499 1500 1504 1508 1512 1516 1523 1527 1531 1535 1538 1540 1541 1543 1546 1549 1552 1554 1556 1558 1559 1561 1564
1475 1479 1475 1467 1456 1454 1457 1463 1458 1457 1459 1464 1464 1463 1465 1465 1464 1471 1475 1476 1477 1480 1483 1485 1488 1493 1497 1501 1504 1510 1513 1519 1523 1523 1527 1531 1535 1537 1539 1541 1543 1545 1548 1550 1552 1554 1555 1556 1558
1476 1461 1459 1460 1464 1476 1456 1481 1460 1455 1458 1460 1460 1461 1462 1465 1464 1467 1470 1472 1477 1481 1484 1487 1490 1493 1497 1501 1506 1509 1511 1513 1518 1521 1525 1527 1531 1534 1536 1537 1539 1543 1545 1548 1549 1551 1551 1553 1554
1463 1456 1454 1453 1459 1465 1466 1475 1457 1454 1461 1459 1456 1457 1458 1461 1462 1464 1467 1471 1475 1480 1483 1487 1489 1494 1497 1501 1505 1506 1510 1514 1517 1522 1523 1525 1528 1529 1532 1534 1536 1538 1540 1543 1544 1545 1546 1548 1550
1450 1449 1454 1459 1464 1481 1470 1472 1462 1456 1443 1447 1451 1453 1454 1457 1460 1464 1468 1472 1474 1478 1482 1485 1488 1493 1496 1500 1503 1505 1507 1511 1515 1516 1516 1520 1522 1524 1527 1529 1530 1532 1535 1536 1538 1540 1541 1542 1544
1447 1456 1480 1486 1483 1487 1467 1467 1453 1435 1431 1430 1437 1442 1447 1451 1456 1460 1463 1465 1468 1470 1475 1479 1483 1486 1491 1495 1498 1500 1502 1506 1507 1509 1511 1513 1515 1517 1519 1522 1524 1526 1529 1531 1534 1535 1536 1537 1538
1446 1450 1479 1484 1492 1480 1463 1465 1447 1430 1423 1424 1427 1431 1438 1446 1449 1451 1453 1457 1461 1465 1468 1472 1475 1480 1483 1486 1489 1493 1497 1498 1499 1501 1504 1506 1508 1510 1514 1516 1518 1521 1524 1526 1528 1528 1530 1530 1534
1441 1450 1441 1465 1466 1478 1466 1450 1433 1423 1420 1418 1423 1428 1435 1438 1441 1443 1448 1451 1454 1457 1459 1461 1466 1470 1475 1478 1483 1485 1489 1491 1492 1494 1497 1500 1503 1504 1506 1510 1513 1515 1517 1518 1520 1522 1524 1525 1525
1427 1427 1454 1458 1476 1478 1465 1457 1448 1430 1421 1420 1424 1424 1427 1429 1434 1439 1444 1446 1448 1450 1453 1459 1463 1463 1466 1472 1476 1478 1481 1484 1486 1489 1489 1492 1495 1497 1500 1503 1505 1508 1509 1512 1515 1516 1516 1520 1523
1427 1429 1430 1438 1452 1470 1477 1460 1429 1423 1419 1419 1418 1417 1419 1424 1428 1432 1436 1439 1441 1445 1450 1452 1458 1461 1465 1467 1469 1471 1474 1477 1481 1482 1482 1484 1488 1490 1493 1494 1497 1499 1502 1506 1509 1510 1512 1515 1517
1416 1417 1420 1445 1449 1450 1461 1456 1418 1418 1418 1417 1419 1416 1417 1417 1421 1425 1428 1431 1433 1437 1443 1445 1447 1452 1456 1460 1462 1464 1468 1471 1474 1475 1475 1478 1481 1485 1488 1488 1491 1495 1498 1501 1503 1504 1506 1508 1510